Hourly Weather Gogolevo

Today, 17 June, Thursday

Time Temperature Precipitation Wind Pressure Humidity
00:00 +13°C° 0 mm 1 mps 760 mmHg 69%
01:00 +12°C° 0 mm 1 mps 761 mmHg 72%
02:00 +12°C° 0 mm 1 mps 761 mmHg 74%
03:00 +12°C° 0 mm 1 mps 761 mmHg 75%
04:00 +13°C° 0 mm 1 mps 762 mmHg 76%
05:00 +13°C° 0 mm 1 mps 762 mmHg 77%
06:00 +15°C° 0 mm 1 mps 762 mmHg 70%
07:00 +19°C° 0 mm 1 mps 762 mmHg 62%
08:00 +21°C° 0 mm 1 mps 762 mmHg 55%
09:00 +22°C° 0 mm 1 mps 763 mmHg 50%
10:00 +23°C° 0 mm 1 mps 763 mmHg 45%
11:00 +25°C° 0 mm 1 mps 763 mmHg 41%
12:00 +25°C° 0 mm 1 mps 763 mmHg 39%
13:00 +26°C° 0 mm 2 mps 763 mmHg 38%
14:00 +27°C° 0 mm 2 mps 763 mmHg 37%
15:00 +26°C° 0 mm 2 mps 762 mmHg 39%
16:00 +26°C° 0 mm 2 mps 762 mmHg 41%
17:00 +26°C° 0 mm 2 mps 762 mmHg 43%
18:00 +24°C° 0 mm 1 mps 762 mmHg 51%
19:00 +22°C° 0 mm 1 mps 763 mmHg 60%
20:00 +21°C° 0 mm 1 mps 763 mmHg 69%
21:00 +20°C° 0 mm 1 mps 763 mmHg 69%
22:00 +19°C° 0 mm 1 mps 763 mmHg 69%
23:00 +18°C° 0 mm 1 mps 763 mmHg 69%

Tomorrow, 18 June, Friday

Time Temperature Precipitation Wind Pressure Humidity
00:00 +16°C° 0 mm 1 mps 763 mmHg 71%
01:00 +15°C° 0 mm 1 mps 763 mmHg 73%
02:00 +15°C° 0 mm 2 mps 763 mmHg 75%
03:00 +15°C° 0 mm 1 mps 763 mmHg 76%
04:00 +15°C° 0 mm 1 mps 763 mmHg 78%
05:00 +16°C° 0 mm 1 mps 763 mmHg 80%
06:00 +18°C° 0 mm 2 mps 763 mmHg 72%
07:00 +20°C° 0 mm 2 mps 763 mmHg 64%
08:00 +23°C° 0 mm 2 mps 763 mmHg 56%
09:00 +25°C° 0 mm 3 mps 763 mmHg 52%
10:00 +26°C° 0 mm 3 mps 763 mmHg 48%
11:00 +27°C° 0 mm 3 mps 763 mmHg 44%
12:00 +28°C° 0 mm 3 mps 762 mmHg 42%
13:00 +29°C° 0 mm 3 mps 762 mmHg 41%
14:00 +29°C° 0 mm 4 mps 762 mmHg 39%
15:00 +29°C° 0 mm 3 mps 762 mmHg 41%
16:00 +29°C° 0 mm 3 mps 761 mmHg 43%
17:00 +29°C° 0 mm 3 mps 761 mmHg 45%
18:00 +27°C° 0 mm 2 mps 761 mmHg 54%
19:00 +25°C° 0 mm 2 mps 761 mmHg 63%
20:00 +23°C° 0 mm 2 mps 761 mmHg 73%
21:00 +20°C° 0 mm 2 mps 761 mmHg 75%
22:00 +19°C° 0 mm 2 mps 761 mmHg 77%
23:00 +18°C° 0 mm 2 mps 762 mmHg 79%

Day after tomorrow, 19 June, Saturday

Time Temperature Precipitation Wind Pressure Humidity
00:00 +17°C° 0 mm 2 mps 762 mmHg 82%
01:00 +17°C° 0 mm 2 mps 762 mmHg 85%
02:00 +16°C° 0 mm 2 mps 762 mmHg 89%
03:00 +17°C° 0 mm 2 mps 762 mmHg 88%
04:00 +17°C° 0 mm 2 mps 762 mmHg 87%
05:00 +18°C° 0 mm 2 mps 762 mmHg 86%
06:00 +20°C° 0 mm 2 mps 762 mmHg 78%
07:00 +22°C° 0 mm 3 mps 762 mmHg 70%
08:00 +25°C° 0 mm 3 mps 762 mmHg 62%
09:00 +26°C° 0 mm 3 mps 762 mmHg 56%
10:00 +27°C° 0 mm 3 mps 762 mmHg 49%
11:00 +28°C° 0 mm 4 mps 761 mmHg 43%
12:00 +29°C° 0 mm 3 mps 761 mmHg 41%
13:00 +29°C° 0 mm 3 mps 761 mmHg 39%
14:00 +30°C° 0 mm 3 mps 760 mmHg 37%
15:00 +30°C° 0 mm 3 mps 760 mmHg 39%
16:00 +30°C° 0 mm 3 mps 760 mmHg 41%
17:00 +30°C° 0 mm 3 mps 760 mmHg 43%
18:00 +28°C° 0 mm 2 mps 760 mmHg 53%
19:00 +26°C° 0 mm 2 mps 759 mmHg 63%
20:00 +24°C° 0 mm 2 mps 759 mmHg 73%
21:00 +21°C° 0 mm 2 mps 759 mmHg 75%
22:00 +20°C° 0 mm 2 mps 760 mmHg 78%
23:00 +19°C° 0 mm 2 mps 760 mmHg 81%

20 June, Sunday

Time Temperature Precipitation Wind Pressure Humidity
00:00 +18°C° 0 mm 2 mps 760 mmHg 84%
01:00 +18°C° 0 mm 2 mps 760 mmHg 88%
02:00 +17°C° 0 mm 2 mps 760 mmHg 91%
03:00 +18°C° 0 mm 2 mps 760 mmHg 90%
04:00 +18°C° 0 mm 2 mps 760 mmHg 89%
05:00 +19°C° 0 mm 2 mps 760 mmHg 88%
06:00 +21°C° 0 mm 2 mps 759 mmHg 80%
07:00 +24°C° 0 mm 3 mps 759 mmHg 72%
08:00 +25°C° 0 mm 3 mps 759 mmHg 64%
09:00 +27°C° 0 mm 3 mps 759 mmHg 58%
10:00 +28°C° 0 mm 4 mps 759 mmHg 53%
11:00 +29°C° 0 mm 4 mps 759 mmHg 48%
12:00 +30°C° 0 mm 4 mps 758 mmHg 45%
13:00 +32°C° 0 mm 4 mps 758 mmHg 43%
14:00 +32°C° 0 mm 4 mps 758 mmHg 40%
15:00 +32°C° 0 mm 4 mps 757 mmHg 42%
16:00 +31°C° 0 mm 3 mps 757 mmHg 45%
17:00 +30°C° 0 mm 3 mps 757 mmHg 47%
18:00 +28°C° 0 mm 3 mps 757 mmHg 56%
19:00 +27°C° 0 mm 3 mps 757 mmHg 64%
20:00 +25°C° 0 mm 2 mps 757 mmHg 72%
21:00 +24°C° 0 mm 2 mps 757 mmHg 77%
22:00 +23°C° 0 mm 2 mps 757 mmHg 82%
23:00 +20°C° 0 mm 2 mps 758 mmHg 88%

21 June, Monday

Time Temperature Precipitation Wind Pressure Humidity
00:00 +20°C° 0 mm 2 mps 758 mmHg 90%
01:00 +19°C° 0 mm 2 mps 758 mmHg 92%
02:00 +19°C° 0 mm 2 mps 758 mmHg 94%
03:00 +19°C° 0 mm 2 mps 758 mmHg 93%
04:00 +20°C° 0 mm 2 mps 758 mmHg 91%
05:00 +21°C° 0 mm 1 mps 759 mmHg 89%
06:00 +23°C° 0 mm 1 mps 759 mmHg 81%
07:00 +25°C° 0 mm 2 mps 759 mmHg 73%
08:00 +27°C° 0 mm 2 mps 759 mmHg 65%
09:00 +28°C° 0 mm 2 mps 759 mmHg 59%
10:00 +29°C° 0 mm 2 mps 759 mmHg 54%
11:00 +30°C° 0 mm 2 mps 758 mmHg 48%
12:00 +31°C° 0 mm 2 mps 758 mmHg 46%
13:00 +32°C° 0 mm 2 mps 758 mmHg 43%
14:00 +32°C° 0 mm 2 mps 758 mmHg 41%
15:00 +32°C° 0 mm 2 mps 758 mmHg 45%
16:00 +31°C° 0 mm 1 mps 758 mmHg 49%
17:00 +30°C° 0 mm 1 mps 757 mmHg 53%
18:00 +29°C° 0 mm 1 mps 757 mmHg 59%
19:00 +28°C° 0 mm 1 mps 757 mmHg 65%
20:00 +27°C° 0 mm 2 mps 758 mmHg 71%
21:00 +26°C° 0 mm 2 mps 758 mmHg 72%
22:00 +25°C° 0 mm 2 mps 758 mmHg 73%
23:00 +24°C° 0 mm 2 mps 758 mmHg 75%

22 June, Tuesday

Time Temperature Precipitation Wind Pressure Humidity
00:00 +24°C° 0 mm 2 mps 758 mmHg 77%
01:00 +23°C° 0 mm 2 mps 758 mmHg 80%
02:00 +21°C° 0 mm 2 mps 758 mmHg 82%
03:00 +21°C° 0 mm 2 mps 758 mmHg 81%
04:00 +22°C° 0 mm 1 mps 758 mmHg 81%
05:00 +22°C° 0 mm 1 mps 758 mmHg 80%
06:00 +24°C° 0 mm 2 mps 759 mmHg 73%
07:00 +26°C° 0 mm 2 mps 759 mmHg 65%
08:00 +28°C° 0 mm 2 mps 759 mmHg 57%
09:00 +30°C° 0 mm 3 mps 759 mmHg 52%
10:00 +31°C° 0 mm 3 mps 759 mmHg 47%
11:00 +34°C° 0 mm 3 mps 758 mmHg 42%
12:00 +34°C° 0 mm 3 mps 758 mmHg 39%
13:00 +35°C° 0 mm 3 mps 758 mmHg 37%
14:00 +36°C° 0 mm 3 mps 758 mmHg 34%
15:00 +35°C° 0 mm 3 mps 758 mmHg 36%
16:00 +35°C° 0 mm 3 mps 758 mmHg 38%
17:00 +35°C° 0 mm 3 mps 758 mmHg 40%
18:00 +32°C° 0 mm 2 mps 758 mmHg 49%
19:00 +30°C° 0 mm 2 mps 758 mmHg 59%
20:00 +27°C° 0 mm 2 mps 758 mmHg 68%
21:00 +27°C° 0 mm 2 mps 758 mmHg 70%
22:00 +26°C° 0 mm 2 mps 758 mmHg 71%
23:00 +25°C° 0 mm 2 mps 758 mmHg 73%
Show more

We Need Your Consent

Meteoprog and our Service Providers may store and access personal data such as cookies, device identifiers or other similar technologies on your device and process such data to personalise content and ads, as well as provide social media features and to analyse the traffic.

  • Store and/or access information on your device

    Cookies, device identifiers or other information can be stored or accessed on your device for the purposes indicated above.

  • Personalised ads and content, ad and content measurement, audience insights, and products development

    Ads and content can be personalised based on a profile. More data can be added to better personalise ads and content. Ad and content performance can be measured. Insights about the audience who saw the ads and content can be derived. Such data can be used to develop or improve user’s experience, systems and software.

By clicking ‘I Agree’ you will allow the use of indicated cookies, device identifiers, web beacons or other similar technologies. Your settings can be changed in the browser on your device.

For certain purposes, legitimate interests may be relied on, rather than consent. You can read more about this in our Privacy and Cookie Policy.